Cooperstown, ND

1:08 AM CDT on March 26, 2017 (GMT -0500)
Cooperstown

Weather History for KS32 - December, 2012

Change the Weather History Date:

Sunday, December 2, 2012

  Actual Average (KJMS) Record (KJMS)
Temperature  
Mean Temperature 36 °F -  
Max Temperature 44 °F 24 °F 61 °F (1941)
Min Temperature 28 °F 8 °F -22 °F (1927)
Degree Days  
Heating Degree Days 29    
Moisture  
Dew Point 34 °F    
Average Humidity 95    
Maximum Humidity 100    
Minimum Humidity 81    
Precipitation  
Precipitation 0.00 in - - ()
Sea Level Pressure  
Sea Level Pressure 29.65 in    
Wind  
Wind Speed 12 mph (SSE)    
Max Wind Speed 20 mph    
Max Gust Speed 26 mph    
Visibility 6 miles    
Events Fog    
Averages and records for this station are not official NWS values.
T = Trace of Precipitation, MM = Missing Value Source: NWS Daily Summary

Daily Weather History Graph

Daily Weather History Graph

Search for Another Location

Airport or City:

Trip Planner

Search our weather history database for the weather conditions in past years. The results will help you decide how hot, cold, wet, or windy it might be!

Date:

Astronomy

Dec. 02, 2012 Rise Set
Actual Time 8:00 AM CST 4:43 PM CST
Civil Twilight 7:25 AM CST 5:18 PM CST
Nautical Twilight 6:47 AM CST 5:56 PM CST
Astronomical Twilight 6:10 AM CST 6:33 PM CST
Moon 8:39 PM CST (12/2) 10:45 AM CST (12/2)
Length of Visible Light 9h 52m
Length of Day
8h 42m
Waning Gibbous, 85% of the Moon is Illuminated
Dec 2
Waning Gibbous
Dec 6
Last Quarter
Dec 13
New
Dec 19
First Quarter
Dec 28
Full

Hourly Weather History & Observations

Time (CST) Temp. Windchill Dew Point Humidity Pressure Visibility Wind Dir Wind Speed Gust Speed Precip Events Conditions
12:15 AM 32.0 °F 26.4 °F 32.0 °F 100% 29.84 in 2.5 mi SE 5.8 mph - N/A   Overcast
12:35 AM 32.0 °F 24.8 °F 32.0 °F 100% 29.84 in 3.0 mi SSE 8.1 mph - N/A   Overcast
12:55 AM 32.0 °F 26.4 °F 32.0 °F 100% 29.84 in 2.5 mi SSE 5.8 mph - N/A   Overcast
1:15 AM 32.0 °F 24.8 °F 32.0 °F 100% 29.84 in 2.5 mi SSE 8.1 mph - N/A   Overcast
1:35 AM 32.0 °F 24.8 °F 32.0 °F 100% 29.85 in 2.5 mi South 8.1 mph - N/A   Overcast
1:55 AM 32.0 °F 25.6 °F 32.0 °F 100% 29.85 in 2.5 mi South 6.9 mph - N/A   Overcast
2:15 AM 32.0 °F 24.8 °F 32.0 °F 100% 29.85 in 2.5 mi South 8.1 mph - N/A   Overcast
2:35 AM 32.0 °F 25.6 °F 32.0 °F 100% 29.85 in 2.5 mi South 6.9 mph - N/A   Overcast
2:55 AM 32.0 °F 23.6 °F 32.0 °F 100% 29.85 in 2.5 mi SSE 10.4 mph - N/A   Overcast
3:15 AM 32.0 °F 23.6 °F 32.0 °F 100% 29.83 in 2.5 mi SSE 10.4 mph - N/A   Overcast
3:35 AM 32.0 °F 22.5 °F 32.0 °F 100% 29.83 in 2.0 mi SSE 12.7 mph - N/A   Overcast
3:55 AM 30.2 °F 20.2 °F 30.2 °F 100% 29.83 in 0.5 mi South 12.7 mph - N/A Fog Light Freezing Fog
4:15 AM 30.2 °F 20.2 °F 30.2 °F 100% 29.82 in 0.5 mi South 12.7 mph - N/A Fog Light Freezing Fog
4:35 AM 30.2 °F 19.8 °F 30.2 °F 100% 29.82 in 0.5 mi South 13.8 mph - N/A Fog Light Freezing Fog
4:55 AM 30.2 °F 19.3 °F 30.2 °F 100% 29.82 in 0.5 mi South 15.0 mph - N/A Fog Light Freezing Fog
5:15 AM 30.2 °F 18.9 °F 30.2 °F 100% 29.81 in 0.5 mi South 16.1 mph - N/A Fog Light Freezing Fog
5:35 AM 30.2 °F 19.8 °F 30.2 °F 100% 29.81 in 0.2 mi South 13.8 mph - N/A Fog Light Freezing Fog
5:55 AM 30.2 °F 19.3 °F 30.2 °F 100% 29.81 in 0.8 mi South 15.0 mph - N/A   Overcast
6:15 AM 30.2 °F 18.5 °F 30.2 °F 100% 29.81 in 1.5 mi South 17.3 mph 21.9 mph N/A   Overcast
6:35 AM 30.2 °F 18.5 °F 30.2 °F 100% 29.79 in 1.2 mi South 17.3 mph 24.2 mph N/A   Overcast
6:55 AM 28.4 °F 16.6 °F 28.4 °F 100% 29.79 in 0.5 mi South 16.1 mph - N/A Fog Light Freezing Fog
7:15 AM 28.4 °F 16.6 °F 28.4 °F 100% 29.79 in 0.5 mi South 16.1 mph 24.2 mph N/A Fog Light Freezing Fog
7:35 AM 28.4 °F 16.2 °F 28.4 °F 100% 29.79 in 0.5 mi South 17.3 mph 23.0 mph N/A Fog Light Freezing Fog
7:55 AM 28.4 °F 17.0 °F 28.4 °F 100% 29.78 in 0.5 mi SSE 15.0 mph - N/A Fog Light Freezing Fog
8:15 AM 28.4 °F 15.4 °F 28.4 °F 100% 29.76 in 0.2 mi South 19.6 mph 26.5 mph N/A Fog Light Freezing Fog
8:35 AM 28.4 °F 16.2 °F 28.4 °F 100% 29.76 in 0.2 mi South 17.3 mph 24.2 mph N/A Fog Light Freezing Fog
8:55 AM 30.2 °F 21.9 °F 30.2 °F 100% 29.77 in 0.2 mi South 9.2 mph - N/A Fog Light Freezing Fog
9:15 AM 30.2 °F 20.8 °F 30.2 °F 100% 29.77 in 0.2 mi South 11.5 mph - N/A Fog Light Freezing Fog
9:35 AM 30.2 °F 20.8 °F 30.2 °F 100% 29.77 in 0.8 mi South 11.5 mph - N/A   Overcast
9:55 AM 32.0 °F 22.1 °F 32.0 °F 100% 29.76 in 1.2 mi South 13.8 mph - N/A   Overcast
10:15 AM 32.0 °F 21.2 °F 32.0 °F 100% 29.75 in 2.5 mi South 16.1 mph 20.7 mph N/A   Partly Cloudy
10:35 AM 32.0 °F 22.5 °F 32.0 °F 100% 29.75 in 3.0 mi South 12.7 mph - N/A   Clear
10:55 AM 33.8 °F 24.3 °F 33.8 °F 100% 29.73 in 3.0 mi South 13.8 mph - N/A   Clear
11:15 AM 35.6 °F 25.5 °F 35.6 °F 100% 29.72 in 4.0 mi South 17.3 mph - N/A   Clear
11:35 AM 37.4 °F 28.2 °F 37.4 °F 100% 29.70 in 5.0 mi South 16.1 mph - N/A   Clear
12:15 PM 41.0 °F 33.1 °F 39.2 °F 93% 29.70 in 8.0 mi South 15.0 mph - N/A   Clear
12:35 PM 41.0 °F 33.5 °F 39.2 °F 93% 29.69 in 9.0 mi South 13.8 mph - N/A   Clear
12:55 PM 44.6 °F 37.4 °F 39.2 °F 81% 29.67 in 10.0 mi South 16.1 mph - N/A   Clear
1:15 PM 44.6 °F 38.1 °F 39.2 °F 81% 29.65 in 10.0 mi South 13.8 mph - N/A   Clear
1:35 PM 44.6 °F 37.8 °F 39.2 °F 81% 29.63 in 10.0 mi South 15.0 mph - N/A   Clear
1:55 PM 44.6 °F 38.1 °F 39.2 °F 81% 29.62 in 10.0 mi South 13.8 mph - N/A   Clear
2:15 PM 44.6 °F 38.1 °F 39.2 °F 81% 29.61 in 10.0 mi South 13.8 mph 18.4 mph N/A   Clear
2:35 PM 44.6 °F 38.4 °F 39.2 °F 81% 29.60 in 10.0 mi SSE 12.7 mph - N/A   Clear
2:55 PM 42.8 °F 36.6 °F 39.2 °F 87% 29.60 in 10.0 mi SSE 11.5 mph - N/A   Clear
3:15 PM 41.0 °F 33.5 °F 39.2 °F 93% 29.57 in 9.0 mi SSE 13.8 mph - N/A   Clear
3:35 PM 39.2 °F 30.2 °F 37.4 °F 93% 29.57 in 8.0 mi SSE 17.3 mph 20.7 mph N/A   Clear
3:55 PM 39.2 °F 30.8 °F 37.4 °F 93% 29.56 in 8.0 mi SSE 15.0 mph - N/A   Clear
4:15 PM 37.4 °F 28.2 °F 37.4 °F 100% 29.55 in 7.0 mi SSE 16.1 mph - N/A   Clear
4:35 PM 37.4 °F 28.9 °F 37.4 °F 100% 29.54 in 6.0 mi SSE 13.8 mph - N/A   Clear
4:55 PM 35.6 °F 26.6 °F 35.6 °F 100% 29.53 in 6.0 mi SSE 13.8 mph - N/A   Clear
5:15 PM 35.6 °F 27.1 °F 35.6 °F 100% 29.52 in 8.0 mi SSE 12.7 mph - N/A   Clear
5:35 PM 35.6 °F 27.1 °F 35.6 °F 100% 29.51 in 8.0 mi SE 12.7 mph - N/A   Clear
5:55 PM 37.4 °F 28.5 °F 35.6 °F 93% 29.49 in 10.0 mi SSE 15.0 mph - N/A   Clear
6:15 PM 37.4 °F 29.3 °F 35.6 °F 93% 29.50 in 9.0 mi SE 12.7 mph - N/A   Clear
6:35 PM 37.4 °F 29.3 °F 35.6 °F 93% 29.49 in 10.0 mi SSE 12.7 mph - N/A   Clear
6:55 PM 37.4 °F 28.9 °F 37.4 °F 100% 29.48 in 10.0 mi SSE 13.8 mph - N/A   Clear
7:15 PM 39.2 °F 31.2 °F 37.4 °F 93% 29.47 in 10.0 mi SSE 13.8 mph - N/A   Clear
7:35 PM 39.2 °F 30.8 °F 37.4 °F 93% 29.46 in 10.0 mi SSE 15.0 mph - N/A   Clear
7:55 PM 39.2 °F 30.8 °F 37.4 °F 93% 29.44 in 10.0 mi SSE 15.0 mph - N/A   Clear
8:15 PM 41.0 °F 32.5 °F 37.4 °F 87% 29.42 in 10.0 mi SSE 17.3 mph - N/A   Clear
8:35 PM 39.2 °F 30.5 °F 37.4 °F 93% 29.41 in 10.0 mi SSE 16.1 mph - N/A   Clear
8:55 PM 39.2 °F 30.5 °F 37.4 °F 93% 29.40 in 10.0 mi SSE 16.1 mph - N/A   Clear
9:15 PM 39.2 °F 30.5 °F 37.4 °F 93% 29.39 in 10.0 mi SSE 16.1 mph - N/A   Clear
9:35 PM 39.2 °F 30.5 °F 35.6 °F 87% 29.38 in 10.0 mi SSE 16.1 mph - N/A   Clear
9:55 PM 39.2 °F 31.2 °F 35.6 °F 87% 29.37 in 10.0 mi SSE 13.8 mph - N/A   Clear
10:15 PM 37.4 °F 28.9 °F 35.6 °F 93% 29.37 in 10.0 mi South 13.8 mph - N/A   Clear
10:35 PM 39.2 °F 31.6 °F 35.6 °F 87% 29.36 in 10.0 mi South 12.7 mph - N/A   Clear
10:55 PM 39.2 °F 32.0 °F 35.6 °F 87% 29.35 in 10.0 mi South 11.5 mph - N/A   Clear
11:15 PM 39.2 °F 31.6 °F 37.4 °F 93% 29.35 in 10.0 mi South 12.7 mph - N/A   Clear
11:35 PM 41.0 °F 33.1 °F 37.4 °F 87% 29.34 in 10.0 mi South 15.0 mph 19.6 mph N/A   Clear
11:55 PM 41.0 °F 33.1 °F 37.4 °F 87% 29.34 in 10.0 mi South 15.0 mph - N/A   Clear